カタリナ彗星

C/2009 K2 ( Catalina )

English version
Home page
Updated on April 6, 2013

---------------------------------------------------------------------

・ プロフィール

発見日 2009年5月18日
発見光度 19.4等
発見者 Catalina Sky Survey

・ 写真集

・ 軌道要素

Epoch 2010 Feb. 13.0 TT = JDT 2455240.5
T 2010 Feb. 7.52792 TT                                  MPC
q   3.2460543            (2000.0)            P               Q
z  +0.0006415      Peri.  147.70448     +0.29557262     +0.57372824
 +/-0.0000012      Node   123.80607     -0.94714728     +0.07162419
e   0.9979177      Incl.   66.82117     +0.12469507     -0.81590801
From 617 observations 2009 May 18-2010 July 16, mean residual 0".6.

・ 星図

・ 光度変化

        m1 = 4.2 + 5 logΔ + 20.0 log r(t + 60)

---------------------------------------------------------------------

軌道要素はM.P.E.C. 2013-B90に掲載されたものです。
星図はステラナビゲータ Ver.8 (アストロアーツ) で作成したものです。
光度グラフはComet for Windowsで作成したものです。

---------------------------------------------------------------------

Copyright(C) Seiichi Yoshida (comet@aerith.net). All rights reserved.